Regional Weather Roundup
Issued by NWS Goodland, KS

Home | Current Version | Previous Version | Text Only | Print | Product List | Glossary Off
Versions: 1 2 3 4 5 6 7 8 9 10 11 12 13 14 15 16 17 18 19 20 21 22 23 24 25 26 27 28 29 30 31 32 33 34 35 36 37 38 39 40 41 42 43 44 45 46 47 48 49 50

912
ASUS43 KGLD 260608
RWRGLD

GOODLAND FORECAST AREA HOURLY WEATHER ROUNDUP
NATIONAL WEATHER SERVICE GOODLAND KS
1200 AM MDT SUN MAR 26 2017

...OFFICIAL OBSERVATIONS...

CITY           SKY/WX    TMP DP  RH WIND       PRES   REMARKS
GOODLAND KS    CLOUDY    39  38  96 S14       29.86R
HILL CITY KS   CLOUDY    38  38 100 CALM      29.91R FOG
IMPERIAL NEB   CLOUDY    40  38  93 SE12      29.87R
MCCOOK NEB     CLOUDY    41  41 100 E7        29.89S FOG
AKRON CO       CLOUDY    43  32  65 SE13      29.85S
BURLINGTON CO  CLOUDY    41  37  86 SE13      29.86R
LIMON CO       CLOUDY    40  35  83 E5        29.85F
$$

...UNOFFICIAL OBSERVATIONS...

CITY           SKY/WX    TMP DP  RH WIND       PRES   REMARKS
LENORA KS        N/A     37  32  82 CALM        N/A
NORTON KS      CLOUDY    39  37  93 SE3       29.89F FOG
SHARON SPRINGS   N/A     40  37  88 SE8         N/A
TRENTON NEB      N/A     38  32  79 SE7         N/A
YUMA CO        FAIR      37  34  87 S5        29.86R
$$




USA.gov is the U.S. government's official web portal to all federal, state and local government web resources and services.